CW6427 Weather Reports


Display with metric or nautical units.
time (UTC)temp
F
wind
direction
speed
MPH
gust
MPH
rain 1hr
in
rain 24hr
in
rain mn
in
humidity
%
barometer
mb
20260831053856 58 218 0.0 0.0 0.00 0.00 0.00 98 1022.7
20260831052856 59 218 0.0 0.0 0.00 0.00 0.00 98 1022.6
20260831050856 59 218 0.0 0.0 0.00 0.00 0.00 97 1022.7
20260831045856 60 237 0.0 2.0 0.00 0.00 0.00 98 1022.9
20260831044855 60 238 2.0 3.0 0.00 0.00 0.00 98 1022.9
20260831043855 60 238 0.0 0.0 0.00 0.00 0.00 97 1022.9
20260831042855 60 237 0.0 0.0 0.00 0.00 0.00 97 1022.8
20260831041855 60 237 0.0 0.0 0.00 0.00 0.00 97 1022.9
20260831034855 60 238 0.0 0.0 0.00 0.00 0.00 96 1022.8
20260831032854 61 237 0.0 0.0 0.00 0.00 0.00 96 1022.5
20260831031854 61 237 0.0 0.0 0.00 0.00 0.00 96 1022.7
20260831025853 62 238 0.0 3.0 0.00 0.00 0.00 97 1022.6
20260831024853 62 234 3.0 3.0 0.00 0.00 0.00 97 1022.8
20260831023853 62 226 1.0 2.0 0.00 0.00 0.00 96 1022.5
20260831021853 63 226 0.0 1.0 0.00 0.00 0.00 96 1022.6
20260831020853 63 226 1.0 3.0 0.00 0.00 0.00 96 1022.5
20260831015853 63 217 0.0 3.0 0.00 0.00 0.00 96 1022.5
20260831014852 63 158 1.0 3.0 0.00 0.00 0.00 96 1022.6
20260831011852 64 148 0.0 0.0 0.00 0.00 0.00 95 1022.8
20260831010852 64 148 0.0 2.0 0.00 0.00 0.00 95 1022.7
20260831005851 64 148 0.0 3.0 0.00 0.00 0.00 95 1022.5
20260831004851 64 146 1.0 3.0 0.00 0.00 0.00 94 1022.2
20260831003851 64 109 2.0 2.0 0.00 0.00 0.00 94 1022.1
20260831002851 64 350 0.0 3.0 0.00 0.00 0.00 94 1021.9
20260831001851 65 322 1.0 5.0 0.00 0.00 0.00 94 1021.8
20260831000851 65 309 2.0 4.0 0.00 0.00 0.00 94 1021.5
20260830234850 65 299 3.0 6.0 0.00 0.00 0.00 94 1021.4
20260830233850 65 313 2.0 9.0 0.00 0.00 0.00 94 1021.4
20260830225850 65 236 2.0 7.0 0.00 0.00 0.00 95 1021.3
20260830224849 64 105 2.0 6.0 0.00 0.00 0.00 95 1021.3
20260830223849 65 192 3.0 4.0 0.00 0.00 0.00 94 1021.4
20260830222849 65 273 0.0 4.0 0.00 0.00 0.00 94 1021.4
20260830221849 64 166 1.0 6.0 0.00 0.00 0.00 94 1021.3
20260830220848 64 176 4.0 5.0 0.00 0.00 0.00 94 1021.3
20260830213848 64 156 2.0 6.0 0.00 0.00 0.00 95 1020.8
20260830212848 64 159 5.0 6.0 0.00 0.00 0.00 94 1021.6
20260830211848 64 163 1.0 5.0 0.00 0.00 0.00 94 1021.1
20260830210848 64 182 0.0 0.0 0.00 0.00 0.00 94 1021.1
20260830205848 65 218 0.0 0.0 0.00 0.00 0.00 94 1021.2
20260830203847 65 169 1.0 5.0 0.00 0.00 0.00 94 1021.1
20260830202847 65 169 2.0 8.0 0.00 0.00 0.00 93 1021.0
20260830201847 65 171 5.0 7.0 0.00 0.00 0.00 92 1020.8
20260830200847 65 211 1.0 3.0 0.00 0.00 0.00 92 1021.0
20260830195847 65 296 1.0 5.0 0.00 0.00 0.00 92 1021.3
20260830194846 65 327 4.0 8.0 0.00 0.00 0.00 92 1021.3
20260830193846 65 291 3.0 9.0 0.00 0.00 0.00 92 1021.4
20260830192846 65 303 2.0 6.0 0.00 0.00 0.00 91 1021.3
20260830190846 66 329 4.0 6.0 0.00 0.00 0.00 88 1021.7
20260830185846 66 329 1.0 6.0 0.00 0.00 0.00 86 1021.9
20260830184845 67 320 4.0 10.0 0.00 0.00 0.00 84 1022.0
20260830183845 68 318 2.0 4.0 0.00 0.00 0.00 82 1022.0
20260830181845 68 296 3.0 7.0 0.00 0.00 0.00 80 1021.9
20260830180845 69 292 4.0 9.0 0.00 0.00 0.00 79 1021.9
20260830175844 69 271 6.0 9.0 0.00 0.00 0.00 79 1021.7
20260830174844 70 286 2.0 8.0 0.00 0.00 0.00 79 1021.7
20260830173844 70 289 3.0 8.0 0.00 0.00 0.00 77 1021.7
20260830172844 70 295 2.0 10.0 0.00 0.00 0.00 76 1021.7
20260830171844 71 311 4.0 6.0 0.00 0.00 0.00 78 1021.7
20260830170844 71 302 3.0 7.0 0.00 0.00 0.00 76 1021.7
20260830165843 71 205 3.0 6.0 0.00 0.00 0.00 78 1021.5
20260830164843 71 237 3.0 8.0 0.00 0.00 0.00 77 1021.7
20260830163843 71 212 5.0 7.0 0.00 0.00 0.00 78 1021.8
20260830162843 71 179 4.0 9.0 0.00 0.00 0.00 78 1022.1
20260830154842 69 221 7.0 10.0 0.00 0.00 0.00 81 1022.2
20260830153841 69 186 7.0 11.0 0.00 0.00 0.00 81 1022.3
20260830152842 68 188 5.0 11.0 0.00 0.00 0.00 81 1022.4
20260830151841 68 182 6.0 12.0 0.00 0.00 0.00 80 1022.4
20260830150841 68 196 6.0 11.0 0.00 0.00 0.00 81 1022.4
20260830145841 68 204 6.0 14.0 0.00 0.00 0.00 79 1022.1
20260830143840 67 162 12.0 12.0 0.00 0.00 0.00 80 1021.9
20260830142841 67 199 7.0 10.0 0.00 0.00 0.00 80 1021.8
20260830141840 67 161 4.0 9.0 0.00 0.00 0.00 81 1021.9
20260830140840 66 198 8.0 11.0 0.00 0.00 0.00 80 1021.8
20260830135840 66 192 4.0 14.0 0.00 0.00 0.00 80 1021.8
20260830134840 66 195 6.0 13.0 0.00 0.00 0.00 80 1021.8
20260830133840 66 198 5.0 12.0 0.00 0.00 0.00 80 1021.9
20260830132839 66 171 8.0 12.0 0.00 0.00 0.00 80 1022.0
20260830131839 66 188 5.0 10.0 0.00 0.00 0.00 79 1022.0
20260830130839 66 184 6.0 9.0 0.00 0.00 0.00 79 1022.1
20260830125839 66 194 6.0 10.0 0.00 0.00 0.00 79 1022.1
20260830124839 66 198 6.0 8.0 0.00 0.00 0.00 79 1022.1
20260830123839 66 189 4.0 10.0 0.00 0.00 0.00 78 1022.3
20260830122838 66 181 5.0 9.0 0.00 0.00 0.00 78 1022.5
20260830121838 66 218 6.0 9.0 0.00 0.00 0.00 78 1022.4
20260830120838 65 190 4.0 9.0 0.00 0.00 0.00 78 1022.3
20260830115838 65 205 8.0 10.0 0.00 0.00 0.00 77 1022.3
20260830114838 65 181 5.0 11.0 0.00 0.00 0.00 77 1022.3
20260830113838 65 157 9.0 12.0 0.00 0.00 0.00 76 1022.4
20260830112837 65 200 6.0 9.0 0.00 0.00 0.00 76 1022.5
20260830111837 66 198 4.0 12.0 0.00 0.00 0.00 75 1022.4
20260830110837 65 205 9.0 11.0 0.00 0.00 0.00 75 1022.7
20260830105837 65 187 7.0 9.0 0.00 0.00 0.00 75 1022.6
20260830104837 65 186 6.0 10.0 0.00 0.00 0.00 75 1022.6
20260830103837 65 200 4.0 9.0 0.00 0.00 0.00 76 1022.7
20260830102837 65 178 4.0 8.0 0.00 0.00 0.00 76 1022.7
20260830101837 64 190 5.0 7.0 0.00 0.00 0.00 78 1022.7
20260830100836 63 187 3.0 9.0 0.00 0.00 0.00 79 1022.7
20260830095836 63 178 3.0 7.0 0.00 0.00 0.00 80 1023.1
20260830094836 64 168 5.0 11.0 0.00 0.00 0.00 78 1023.2
20260830093835 65 180 5.0 10.0 0.00 0.00 0.00 77 1023.4
20260830092836 65 206 7.0 10.0 0.00 0.00 0.00 77 1023.4
20260830091835 62 192 8.0 10.0 0.00 0.00 0.00 82 1023.3
20260830090835 61 166 5.0 6.0 0.00 0.00 0.00 84 1023.3
20260830085835 63 155 3.0 6.0 0.00 0.00 0.00 81 1023.5
20260830083835 64 223 6.0 9.0 0.00 0.00 0.00 79 1023.9
20260830082835 64 171 4.0 6.0 0.00 0.00 0.00 80 1023.8
20260830080834 65 181 4.0 8.0 0.00 0.00 0.00 77 1023.8
20260830074904 65 227 3.0 10.0 0.00 0.00 0.00 78 1023.9
20260830072904 65 204 6.0 8.0 0.00 0.00 0.00 78 1024.1
20260830071834 64 211 3.0 8.0 0.00 0.00 0.00 78 1024.1
20260830070903 65 208 3.0 6.0 0.00 0.00 0.00 78 1024.1
20260830065903 65 188 5.0 8.0 0.00 0.00 0.00 77 1024.1
20260830064833 65 212 6.0 8.0 0.00 0.00 0.00 78 1024.2
20260830062833 65 209 4.0 7.0 0.00 0.00 0.00 77 1024.1
20260830055832 66 203 6.0 9.0 0.00 0.00 0.00 77 1024.2
20260830054902 66 196 3.0 10.0 0.00 0.00 0.00 77 1024.3